SL-16 DEB, 22601

Orbit data source: Space-Track

SL-16 DEB, 22601 is space debris in LEO originally from a launch on Fri, 26 Mar 1993 UTC launched from the Tyuratam Missile And Space Complex (TTMTR). Debris objects in space refer to the collection of defunct objects orbiting the Earth. Examples of debris include non-operational satellites, rocket bodies, and fragments generated from explosions, collisions, or faulty payload assembly.

Loading next visibility...
Identifier
22601, 1993-016K
Orbit
LEO
Country
Flag of CISCIS
Related business
Manufacturer
Unknown
Mission
Spacecraft
Bus & Motor
Unknown
Mass
Unknown
Launch date (UTC)
1993-03-26 (33 years ago)
Launch vehicle
Unknown
Launch site
Tyuratam Missile And Space Complex (TTMTR)
Object type
Payload
Rocket body
Debris
Shape & HBR
Unknown shape, 0.2 m
Radar Cross Section
Medium (>0.1 m² and <1 m²)

Expand to show TLE details & history
Last TLE update: 10 hours ago

TLE from 10 hours ago
0 SL-16 DEB
1 22601U 93016K   26256.55592872 -.00000011  00000-0  27671-4 0  9994
2 22601  71.0416 303.7439 0173988 147.9973 213.1842 13.79121863683354
Epoch: 2026-09-13T13:20Z
TLE epoch observation values (Epoch: 2026-09-13T13:20:32.241Z)
Latitude
0.00001°
Longitude
111.06068°
Altitude
1,076.989 km
Speed
7.26 km/s
True Right ascension
20h 14m 58s
True Declination
0° 00' 00"
Sunlit
Object was in full shadow at epoch
Visualization orbit readout
Latitude
Unknown
Longitude
Unknown
Altitude
Unknown
Speed
Unknown
Apparent Right ascension
Unknown
Apparent Declination
Unknown
Sunlit
N/A
Visualization observer readout
Local Sidereal Time
15:31:46
Azimuth
Unknown
Elevation
Unknown
Doppler factor
Unknown
Orbital elements
Apogee altitude
1,092.719 km
Perigee altitude
837.197 km
Semi-major axis
7,343.095 km
Eccentricity
0.0174
Inclination
71.0416°
RAAN
303.7439°
Arg. of periapsis
147.9973°
True anomaly
212.11254°
Mean anomaly
213.1842°
Eccentric anomaly
212.64643°
Mean motion
3.44925 °/min
Orbital period
104.37 mins
BSTAR
0.000027671
Loading maneuver chart data...
Computing Atmospheric mass density...
Loading historical data...
Loading historical data...
Loading historical data...
Loading historical data...
Loading historical data...
Loading historical data...
Loading historical data...

Documentation

Showing up to 5 results
|